Location: Bouchavesnes-Bergen
(49.9859°N, 2.9203°E)
Time: 23:56:55
(UTC+00:00)

SKYMED 2 - Pass Details

Date: 09 March 2021
Orbit: 621 x 623 km, 97.9° (Epoch: 13 April)

Event Time Altitude Azimuth Distance (km) Brightness Sun altitude
Rises 05:23:59 0° 183° (S) 2,893 6.9 -9.0°
Reaches altitude 10° 05:26:16 10° 190° (S) 1,991 6.0 -8.6°
Maximum altitude 05:30:23 42° 262° (W) 895 3.9 -7.9°
Drops below altitude 10° 05:34:32 10° 334° (NNW) 2,007 5.9 -7.3°
Sets 05:36:50 0° 341° (NNW) 2,918 6.8 -6.9°
